University Park, PA (16802)

11:46 PM EST on December 04, 2016 (GMT -0500)
College Heights | | Change Station

Elev 1219 ft 40.80 °N, 77.87 °W | Updated 36 seconds ago

Light Snow
Light Snow
35.0 °F
Feels Like 35 °F
N
3.0
Wind Variable Wind from SSE
Gusts 6.0 mph

Today
High -- | Low -- °F
--% Chance of Precip.
Yesterday
High -- | Low -- °F
Precip. -- in
Pressure 29.94 in
Visibility 7.0 miles
Clouds Overcast 2600 ft
Windchill 35 °F
Dew Point 31 °F
Humidity 85%
Rainfall 0.00 in
Snow Depth Not available.
7:19 AM 4:43 PM
Waxing Crescent, 28% visible
METAR KUNV 050435Z AUTO 18007KT 150V210 7SM -SN OVC026 02/M01 A2994 RMK AO2 T00171008
Pressure 29.94 in
Visibility 7.0 miles
Clouds Overcast 2600 ft
Windchill 35 °F
Dew Point 31 °F
Humidity 85%
Rainfall 0.00 in
Snow Depth Not available.
7:19 AM 4:43 PM
Waxing Crescent, 28% visible
METAR KUNV 050435Z AUTO 18007KT 150V210 7SM -SN OVC026 02/M01 A2994 RMK AO2 T00171008

10-Day Weather Forecast

Almanac

Astronomy

Dec. 04, 2016 Rise Set
Actual Time
Civil Twilight
Nautical Twilight
Astronomical Twilight
Moon
Length of Visible Light
Length of Day
Tomorrow will be .
, % of the Moon is Illuminated

Today's Extremes

State Highs State Lows

Community

WunderPhotos

Upload Photos

1,955,763 photos uploaded!

WunderBlog® & News

Nearby

Air Quality

  Air Quality AQ Index Pollutant
Not available.

Snow Depth

Station Depth Elevation

Earthquake Activity

City Distance Mag. Time & Date
Minimum magnitude displayed is 2.5.

Coastal Water Temperatures

Place Temperature

Stations

Nearby Weather Stations

Station Location Temp. Windchill Dew Point Humidity Wind Precip. Elev Updated Type
                   

Watches & Warnings

There are currently no watches in effect.